Theta_e
316 316 315 313 313 313 313 312 312 313 313 314 314 313 315 316 315 313 317 319 315 313 314 318 320 316 313 312 309 313 311 310 309 304 304 304 302 305 304 306 304 303 301 301 302 299 296 316 314 310 316 322 327 328
315 314 313 313 312 312 312 312 312 312 313 313 313 313 314 315 315 314 313 319 319 311 313 318 319 322 321 320 315 314 314 314 314 309 308 310 304 307 305 300 309 302 307 305 305 306 316 318 319 321 322 323 327 328
314 313 313 312 311 311 312 312 312 312 313 313 312 313 313 315 315 314 312 314 315 311 312 313 314 322 323 324 325 312 316 317 316 319 315 311 304 309 302 303 306 310 310 306 306 311 314 317 320 322 324 325 328 330
313 312 312 312 311 311 311 311 312 312 312 313 312 313 313 314 315 315 311 314 314 313 309 313 324 321 320 317 321 319 317 320 319 318 312 310 306 312 305 308 307 310 312 309 308 312 315 318 319 321 322 323 325 330
312 312 311 311 310 310 311 311 311 312 312 312 312 312 313 313 314 315 315 313 315 312 309 313 320 321 317 319 316 317 318 317 315 311 309 308 312 309 312 310 306 313 310 307 305 314 313 312 319 321 321 322 325 329
311 311 310 310 310 310 310 311 311 312 312 312 312 313 313 313 313 313 305 314 314 315 311 310 321 316 316 319 319 319 318 318 318 314 314 314 313 311 305 303 310 313 316 317 312 317 316 318 319 320 319 320 326 330
311 311 310 309 309 309 310 310 311 311 311 312 312 312 312 311 312 309 309 310 312 316 311 309 313 315 315 317 316 316 319 317 317 315 311 314 312 310 306 303 309 312 316 318 318 319 316 317 315 321 320 325 327 330
309 310 309 309 308 308 309 310 311 311 311 312 312 312 311 311 310 309 317 310 313 313 313 311 312 310 315 311 311 318 313 314 314 313 313 309 313 311 304 309 312 314 316 317 317 318 318 320 320 321 322 325 327 326
309 309 309 309 309 308 309 310 311 311 311 312 311 312 311 310 309 313 314 314 316 313 311 313 308 305 314 313 315 314 315 308 313 307 309 311 307 308 309 313 314 316 316 316 318 318 318 318 318 320 321 321 322 325
308 308 308 308 309 309 309 310 311 311 311 311 311 305 302 309 314 315 313 309 309 312 311 309 317 309 312 312 310 311 312 308 304 308 310 305 305 313 314 317 319 318 318 319 316 315 316 315 317 318 318 321 322 324
308 309 309 309 308 309 309 310 310 310 310 313 308 309 316 314 314 313 307 306 308 305 311 312 314 310 316 309 309 315 309 309 303 307 306 305 304 312 317 317 318 320 321 321 321 320 320 318 317 317 319 322 327 328
309 309 308 308 308 309 309 310 310 311 313 310 310 312 315 310 307 301 303 306 305 303 309 310 312 315 315 319 312 312 308 309 302 310 305 302 309 317 319 317 319 320 320 319 320 319 320 319 319 319 321 322 325 328
308 308 308 308 308 308 309 309 309 310 310 313 309 308 309 307 296 296 294 300 303 307 309 311 311 316 315 317 313 310 304 303 311 304 303 306 314 319 320 320 319 320 320 319 319 321 321 320 321 321 321 324 325 327
307 307 307 307 308 308 308 309 309 310 311 308 305 292 300 299 301 302 303 304 309 311 314 311 311 314 313 310 307 301 309 308 301 300 300 308 317 320 323 321 319 318 319 319 320 321 321 322 321 323 324 325 325 327
306 306 307 307 308 308 308 308 309 313 311 306 306 295 300 305 309 310 312 310 313 315 312 311 309 309 309 307 307 306 302 299 302 300 306 312 320 321 322 320 319 318 318 319 320 320 321 322 322 323 325 328 327 329
306 306 309 308 308 310 310 309 312 313 311 307 306 302 306 305 305 307 308 308 316 315 314 313 307 303 302 304 303 301 299 298 303 309 312 316 323 324 324 323 322 321 320 320 320 321 322 322 322 324 325 327 328 330
305 307 309 310 310 309 309 313 312 307 306 304 303 308 306 306 306 308 311 312 316 312 307 306 301 300 308 301 300 304 302 307 313 316 317 321 322 323 323 323 322 321 321 321 321 322 322 323 323 323 323 326 327 329
307 310 310 310 311 310 314 313 308 306 301 304 302 304 306 307 306 308 312 312 313 313 311 304 311 302 300 298 300 307 313 317 319 318 318 321 324 325 322 322 322 322 322 322 322 322 322 322 322 322 325 325 324 324
307 309 308 310 311 310 307 307 309 301 302 305 306 306 306 306 308 309 310 312 311 312 310 311 304 302 303 307 308 311 315 315 314 315 318 323 324 324 323 322 323 322 322 321 321 318 319 322 319 321 322 322 319 319
307 307 308 309 311 309 303 305 311 303 300 303 306 303 304 304 307 308 308 308 309 310 304 304 305 310 313 313 317 315 315 318 317 313 313 318 323 321 320 320 319 321 320 320 319 312 319 318 319 321 320 319 317 317
306 308 308 309 308 309 307 305 304 302 305 300 304 303 302 302 302 306 306 309 305 305 304 307 308 313 319 319 321 321 318 318 317 317 316 317 322 321 319 318 319 318 316 316 315 314 313 317 317 318 318 318 318 318
309 309 307 308 303 305 305 308 305 306 302 302 302 304 301 301 303 306 310 305 304 306 308 308 310 312 313 316 317 323 319 321 322 320 309 312 319 319 318 318 317 317 318 318 318 316 317 317 317 318 316 317 314 318
307 310 309 306 299 299 299 309 301 302 297 301 305 301 302 305 307 312 305 308 308 312 312 312 313 316 315 316 317 318 321 319 318 318 322 322 323 323 321 322 323 321 319 320 320 319 319 311 313 317 318 317 315 312
306 303 300 299 298 295 303 299 301 301 304 302 304 302 305 309 308 304 303 309 308 312 311 316 314 313 314 316 314 314 316 322 317 318 322 320 321 324 326 325 323 320 320 320 320 319 316 317 310 316 315 314 314 313
295 296 297 290 300 297 297 299 302 302 301 304 303 304 308 312 305 305 304 309 310 312 314 316 317 316 314 313 314 316 321 316 312 311 319 318 317 321 319 319 319 320 322 318 314 315 315 316 316 315 315 313 312 310
289 296 292 297 298 297 300 298 299 299 302 301 303 308 311 304 300 300 305 310 309 313 316 318 318 314 313 315 318 315 317 320 318 315 319 319 318 317 317 314 314 315 319 317 314 313 313 314 314 314 313 312 303 312
290 295 302 304 302 302 300 302 305 304 301 301 302 303 300 296 298 305 312 313 311 316 318 320 320 317 319 318 320 320 321 321 320 320 322 322 322 323 321 318 316 317 316 315 315 314 313 313 312 311 310 311 311 311
298 300 298 303 304 305 300 302 301 301 301 303 302 299 300 301 302 314 314 319 319 319 319 318 318 323 324 318 320 320 322 322 323 322 321 321 322 323 322 323 322 303 317 318 316 315 312 311 311 310 310 310 310 311
300 305 305 301 301 301 303 303 303 306 309 306 301 303 307 315 317 316 317 318 320 320 321 317 318 317 318 320 320 319 319 319 316 314 314 313 315 317 321 321 319 319 317 316 299 307 313 314 315 314 314 314 314 313
301 305 300 301 300 302 306 310 308 311 311 313 314 315 316 316 317 322 320 319 318 320 320 318 316 315 313 314 313 315 318 318 317 314 311 311 313 318 319 317 317 317 317 316 315 315 298 310 306 316 314 316 315 313
305 302 301 302 302 305 307 308 311 313 313 313 316 313 311 313 317 320 319 317 317 318 317 315 315 316 314 313 313 313 313 318 319 317 316 316 316 316 316 316 316 317 317 317 316 316 316 314 315 314 313 313 313 310
303 302 301 297 300 308 310 309 309 309 312 312 311 313 312 310 308 313 320 319 314 314 307 313 314 314 316 316 316 317 305 318 319 320 318 317 317 318 318 317 318 317 317 316 317 317 316 314 313 313 313 313 312 313
302 302 301 302 302 304 310 311 309 308 309 309 310 312 312 309 307 314 320 321 318 316 315 315 317 318 319 317 317 316 312 318 306 294 297 300 303 308 317 318 319 318 317 315 315 315 315 314 313 313 312 312 312 313
Wind_Speed
8 6 7 7 7 6 7 6 6 7 8 8 8 9 10 8 4 4 3 4 5 4 9 6 5 6 4 6 8 8 7 5 4 4 3 3 4 4 4 2 3 6 5 4 3 4 4 6 5 5 5 3 5 6
6 7 7 6 5 5 6 5 6 7 7 7 7 9 9 9 4 5 3 1 3 6 8 8 14 16 12 12 7 6 4 6 2 1 3 1 5 4 5 5 4 4 4 6 5 6 5 4 5 4 3 6 4 5
8 8 6 6 5 5 6 6 7 8 8 7 7 8 9 9 5 7 3 3 4 5 8 10 10 9 7 13 11 5 3 5 4 4 1 2 4 4 6 7 4 6 3 4 4 8 5 4 4 3 3 5 5 5
8 8 7 6 6 6 7 7 8 8 8 8 8 9 10 9 7 8 4 2 5 5 6 4 2 7 2 6 10 10 5 4 6 3 3 3 4 2 5 4 7 4 9 7 6 5 4 7 6 5 6 4 4 7
7 7 6 6 5 6 6 9 8 8 9 8 8 9 10 9 6 6 5 5 7 6 6 5 9 3 4 4 8 8 9 7 5 4 4 4 2 4 3 3 9 8 7 8 3 9 8 4 11 10 9 7 7 9
6 6 6 5 6 7 7 8 9 8 9 9 8 9 9 8 6 4 4 6 8 5 5 5 4 3 2 6 8 8 5 3 2 3 1 2 2 5 4 7 7 9 9 8 5 4 5 5 5 9 7 5 7 9
6 7 7 6 6 7 8 8 9 8 9 9 8 9 9 7 5 4 6 4 3 6 5 5 5 5 5 6 4 4 1 2 1 2 4 2 4 4 6 10 4 4 7 7 6 9 6 8 8 9 8 6 7 10
7 8 8 7 7 8 8 8 9 9 9 9 8 8 7 4 4 5 7 11 6 5 5 4 2 5 8 6 6 2 4 3 2 1 2 5 4 4 5 7 9 9 7 10 10 8 2 10 9 11 10 10 11 12
6 6 8 9 9 8 8 8 9 9 9 9 7 6 3 4 4 1 7 16 7 5 4 4 4 5 7 4 2 4 3 4 3 4 3 3 5 6 9 9 7 9 10 9 11 10 7 12 11 12 11 12 12 12
7 8 8 8 9 9 7 8 9 9 10 10 5 3 4 2 17 12 7 6 8 6 5 5 2 4 6 8 7 6 3 4 5 4 5 5 7 13 13 10 7 7 11 10 12 13 12 10 10 12 12 11 11 12
8 9 9 9 8 7 6 6 8 8 4 4 4 2 5 8 5 4 3 5 5 5 5 6 7 5 4 8 7 2 4 5 4 5 5 5 6 7 9 14 12 7 11 12 13 13 12 11 10 10 10 10 10 12
8 8 7 6 6 6 6 6 6 5 2 4 3 2 2 4 4 4 5 4 5 5 6 8 11 6 4 2 3 4 3 4 5 6 5 4 7 4 6 5 10 11 12 13 13 12 13 10 9 9 10 11 11 11
4 4 5 5 5 6 6 5 4 6 7 2 3 4 4 4 3 6 7 5 4 5 4 5 7 6 4 4 3 1 6 5 3 5 4 5 3 5 5 6 7 13 13 13 13 13 13 12 9 9 10 10 11 12
4 5 5 5 6 7 6 6 5 5 4 4 4 1 5 5 5 5 7 4 5 2 1 2 3 5 4 5 4 3 2 2 5 8 11 4 6 6 5 6 8 15 15 14 14 14 14 12 10 8 10 10 10 11
3 4 5 9 8 9 9 8 6 4 3 4 3 5 7 6 1 1 2 4 3 2 4 3 3 5 7 6 6 4 7 7 7 4 3 4 5 7 6 8 9 13 14 13 13 13 13 13 11 10 8 9 10 9
3 6 2 3 4 3 6 7 6 3 3 4 5 5 5 5 7 7 6 6 2 2 3 4 3 5 7 6 8 9 8 6 3 3 2 5 7 6 6 8 10 12 14 12 12 12 12 11 10 10 10 10 10 11
4 1 1 2 3 5 4 3 4 5 4 4 6 5 6 4 5 4 3 2 2 3 4 5 7 6 2 6 12 6 10 4 2 2 3 4 5 6 4 5 9 13 13 12 12 11 10 9 9 10 12 11 11 12
1 4 3 3 4 3 4 3 3 4 7 6 7 6 5 5 7 6 3 3 4 2 2 5 4 7 6 6 7 4 2 1 2 3 3 6 5 5 2 4 8 12 13 12 11 11 11 11 11 9 11 13 12 12
3 2 4 2 2 2 3 5 3 4 6 4 6 6 6 6 6 6 6 5 2 3 4 3 6 8 9 7 5 2 1 2 4 4 4 5 5 5 4 3 8 10 11 12 12 9 9 11 9 10 10 11 10 10
4 5 3 2 3 3 4 3 3 4 4 2 3 4 5 7 7 8 9 9 7 4 3 5 7 5 3 5 2 3 4 3 4 5 6 4 2 4 4 5 7 10 10 10 8 7 8 7 6 8 9 10 9 10
3 1 4 1 2 3 3 2 3 3 3 3 2 3 3 1 6 8 8 8 9 9 10 9 11 8 3 3 2 2 3 4 5 4 4 5 3 2 3 5 8 9 9 9 9 7 5 6 6 5 7 8 8 8
1 4 1 2 2 4 4 3 4 2 2 3 3 3 3 3 5 6 5 7 9 11 11 11 11 11 11 11 9 6 4 2 3 1 3 4 2 3 5 7 9 9 9 7 7 7 6 5 7 3 5 8 6 8
2 3 3 3 3 2 4 1 4 4 4 4 4 4 4 4 1 3 5 6 4 4 7 10 12 13 12 11 11 8 7 8 6 5 3 4 3 2 5 5 5 6 5 4 5 7 7 7 8 9 8 8 9 9
1 2 4 3 5 4 3 4 4 4 4 4 4 4 3 3 5 3 5 1 2 1 2 8 6 8 9 10 9 8 7 5 3 3 3 3 1 2 3 4 4 3 2 6 4 5 7 7 8 7 8 10 12 13
2 3 3 3 3 4 5 5 5 4 5 5 5 3 2 1 3 3 1 1 2 5 4 4 5 7 8 6 6 4 5 4 2 2 3 2 2 3 4 4 5 5 4 3 4 6 7 9 8 9 10 10 12 11
3 4 4 4 3 5 2 4 1 1 4 3 2 2 2 0 3 3 3 5 3 4 4 3 2 5 6 5 1 2 3 5 6 6 4 5 6 4 4 5 6 5 3 6 6 7 8 8 10 12 10 11 9 13
3 5 5 5 3 3 3 6 7 4 4 3 4 4 1 2 3 2 1 2 2 4 5 5 6 4 5 4 3 4 4 6 5 4 5 4 4 4 6 7 9 8 5 8 10 10 11 10 10 10 10 10 11 10
4 5 5 4 3 3 5 5 3 2 2 0 2 2 2 2 1 2 2 1 2 3 2 3 3 3 5 6 5 5 7 7 8 9 7 6 4 2 2 4 8 13 8 9 9 10 10 9 9 9 8 8 8 9
5 4 3 6 5 3 4 3 2 2 1 2 3 3 1 2 1 3 2 3 1 1 6 7 4 4 4 6 7 5 5 6 7 9 10 8 8 6 6 9 10 8 8 9 8 5 8 7 6 6 5 6 6 7
3 3 3 4 5 3 2 2 2 2 2 2 3 3 1 2 5 2 3 3 8 7 8 7 6 6 6 6 8 7 4 5 6 7 7 9 9 8 9 9 9 9 9 10 10 7 4 4 3 6 7 6 7 7
1 2 4 3 4 2 2 4 3 3 2 3 3 5 7 7 7 5 6 5 7 8 9 8 8 7 7 8 7 9 8 8 9 11 10 9 9 9 9 9 9 8 8 8 8 8 7 7 6 6 6 7 7 7
3 2 4 4 4 3 5 2 2 4 2 2 4 4 5 8 9 5 2 1 9 7 3 6 8 8 7 6 7 7 6 6 6 6 6 8 7 7 7 6 6 6 6 6 6 7 7 6 5 5 6 7 6 7
4 2 3 3 3 4 4 4 5 5 5 5 4 2 3 7 8 4 3 4 6 6 7 7 7 7 8 9 9 7 8 8 9 11 11 12 10 6 2 4 4 5 6 6 6 6 7 5 4 5 4 4 4 6
Wind_Direction
235 224 205 198 214 243 261 268 274 279 294 314 316 317 317 326 291 286 311 202 287 280 285 266 292 285 218 245 203 131 170 195 191 241 269 141 255 152 248 340 272 258 262 201 224 262 215 155 154 278 65 121 141 155
205 183 195 203 203 235 260 272 284 288 298 303 310 309 314 316 267 264 267 188 250 255 308 314 290 282 275 284 305 192 12 144 137 142 207 222 204 180 276 199 166 228 332 345 316 40 99 141 50 97 63 136 146 147
171 184 189 196 206 245 258 264 272 284 290 298 303 310 310 301 275 231 275 276 233 269 263 233 237 215 228 230 243 257 207 94 171 344 26 360 261 258 226 240 223 176 196 248 225 149 152 150 136 133 120 109 146 153
175 188 198 208 218 241 266 263 265 280 292 295 302 302 295 296 294 218 229 215 270 292 278 169 149 221 255 214 212 235 313 112 120 219 227 243 279 227 270 346 257 21 162 204 228 144 160 201 204 176 167 151 156 150
187 200 202 203 232 250 264 267 266 279 289 290 289 291 289 291 288 251 236 226 264 295 333 316 315 154 217 187 204 208 198 168 173 182 209 215 28 235 191 272 247 179 211 214 270 142 218 138 190 184 181 185 175 170
225 211 215 215 244 252 256 272 272 279 288 294 290 294 291 282 266 240 263 178 202 213 274 264 53 169 131 161 150 159 157 136 158 227 152 135 71 248 250 259 261 228 233 243 263 163 182 136 172 178 188 188 177 170
234 219 224 232 254 274 270 277 279 282 290 301 289 288 286 262 221 230 350 45 181 217 246 252 198 144 169 162 150 139 141 109 294 142 225 220 185 237 257 254 243 261 226 186 157 143 162 181 172 169 165 158 165 162
249 239 230 238 250 265 274 282 283 282 291 298 289 285 287 232 248 272 218 153 162 243 250 262 211 198 188 191 168 213 148 161 136 121 180 232 141 232 252 255 251 235 200 188 193 207 246 173 157 164 169 160 161 162
243 230 238 239 253 262 267 279 283 289 292 295 290 274 188 225 212 340 100 147 208 296 288 229 245 179 164 180 109 157 228 199 99 226 216 213 201 227 233 246 243 209 202 190 186 192 185 176 174 171 175 181 186 174
249 249 246 248 255 258 262 280 287 292 293 292 197 208 205 151 113 153 181 160 192 198 222 262 279 222 214 183 183 155 192 192 200 176 120 229 242 245 236 232 244 226 207 206 179 183 180 180 180 183 192 193 198 179
256 252 249 246 250 257 270 286 293 310 261 217 201 222 73 133 214 233 192 205 179 212 205 235 252 235 179 211 190 257 184 171 227 156 222 209 247 243 241 231 221 214 195 198 195 185 188 180 183 179 181 179 174 168
260 250 251 244 246 257 270 276 288 265 346 350 316 263 214 204 202 232 208 177 216 228 165 226 207 234 118 249 195 177 197 193 229 128 224 239 241 222 210 209 210 195 189 190 192 183 184 176 186 183 180 179 184 174
265 274 262 249 254 260 260 261 266 288 272 182 218 236 207 177 232 209 195 197 208 177 182 200 196 176 175 217 72 42 222 209 118 213 224 210 211 189 207 199 198 191 187 186 183 183 178 171 176 190 187 185 182 172
262 263 264 260 260 257 252 249 250 253 246 241 186 332 241 202 234 213 226 244 78 254 90 231 211 189 178 145 93 309 301 213 221 231 226 197 229 241 207 208 187 186 184 180 179 179 177 170 179 183 195 185 178 175
265 269 277 267 262 248 239 233 230 221 265 254 214 220 220 253 299 246 282 250 196 280 256 194 233 224 185 168 201 173 188 210 223 244 203 215 237 271 223 202 192 181 183 180 177 176 179 181 179 174 175 177 184 169
285 274 231 243 259 278 188 170 187 217 238 242 234 244 233 245 237 228 226 233 150 256 245 245 238 218 206 219 184 207 201 214 199 210 237 319 345 301 253 211 192 179 177 175 175 174 173 171 173 164 162 170 166 168
276 151 353 156 155 134 174 230 196 218 251 234 232 238 275 308 305 308 262 217 144 248 222 206 219 210 203 215 218 234 236 286 64 53 0 1 336 333 305 215 188 170 171 167 164 165 164 160 157 157 162 164 160 154
244 76 48 139 195 167 184 224 240 244 236 239 249 249 222 258 270 243 200 284 271 246 211 247 321 231 227 223 219 208 134 95 360 358 348 334 316 320 337 191 186 178 164 160 161 155 153 155 161 164 154 153 147 144
81 26 9 339 302 266 210 193 232 261 242 268 256 255 257 268 258 272 278 181 203 312 294 241 236 235 234 241 249 215 227 290 309 329 321 311 310 302 296 193 180 179 168 162 159 165 162 173 173 157 158 165 166 164
276 275 272 320 283 241 219 201 221 269 266 321 263 278 272 270 262 238 234 233 216 201 205 236 238 253 309 293 277 286 321 332 283 278 289 294 322 281 224 200 188 167 159 153 162 147 146 164 176 165 169 183 181 176
186 127 153 232 227 261 297 284 223 219 289 271 289 218 254 235 248 240 232 222 216 222 225 222 249 251 300 321 290 360 4 305 293 302 330 306 340 270 174 186 172 172 162 157 155 136 166 163 162 178 166 188 195 179
115 145 167 172 246 220 249 246 271 108 255 265 253 217 245 228 228 216 219 212 228 235 232 239 238 242 247 241 252 250 278 288 220 200 245 262 250 159 163 170 165 163 163 157 149 149 143 136 137 151 214 194 184 149
273 230 213 195 241 239 266 197 249 197 241 228 193 201 203 222 202 152 219 220 254 270 265 245 236 243 257 264 271 255 230 224 238 243 178 240 168 150 142 125 117 127 124 136 150 153 149 155 182 183 183 161 150 141
88 242 221 210 197 246 228 218 216 249 246 254 252 244 166 138 147 213 254 179 119 292 270 262 240 240 229 234 250 240 224 198 237 253 225 281 308 167 156 138 116 78 342 120 144 134 143 155 138 148 152 158 163 162
224 213 195 262 212 235 224 234 217 229 262 212 259 275 97 190 226 243 306 82 235 275 248 223 241 242 243 226 219 189 166 170 166 257 197 187 308 134 127 117 122 96 87 113 138 147 142 155 158 156 155 158 155 153
221 202 204 218 195 221 278 294 253 282 307 277 316 31 107 120 349 321 15 339 320 318 328 324 237 181 197 225 203 116 147 197 195 212 205 202 203 203 165 157 154 160 205 158 142 152 163 151 153 157 155 151 160 175
234 225 204 207 250 260 266 247 254 241 250 2 343 9 82 202 219 133 277 292 259 22 5 15 11 14 85 96 106 104 121 140 161 140 136 171 176 173 178 175 178 156 153 159 171 167 166 160 157 163 156 162 173 197
254 257 241 168 242 260 255 282 302 353 113 110 302 276 273 350 89 8 34 340 219 196 259 52 42 60 80 100 102 119 109 119 124 123 119 116 110 119 163 118 125 136 167 188 167 157 161 160 162 172 179 184 180 192
239 229 250 253 225 236 246 256 178 198 10 200 198 247 328 24 29 28 29 12 346 357 101 104 90 87 100 102 92 96 124 141 135 134 130 130 135 127 133 124 139 161 164 163 67 110 166 168 174 175 188 209 208 198
234 167 250 250 240 226 173 204 344 17 239 240 252 242 185 72 44 75 123 104 91 105 123 118 127 110 102 119 108 96 70 96 106 105 103 102 110 123 129 139 144 146 151 153 163 146 90 195 158 209 225 219 209 205
313 244 232 264 334 328 301 274 227 231 260 250 211 101 95 106 98 70 54 76 106 111 117 136 154 146 125 117 118 112 98 82 70 75 97 114 120 124 130 131 135 140 155 167 171 185 178 204 210 206 197 214 189 219
197 325 50 358 297 311 331 37 155 188 212 166 118 142 142 112 103 97 27 2 94 84 99 118 100 79 74 77 75 74 42 99 120 114 133 110 109 123 140 140 146 149 158 163 173 157 175 204 179 191 169 187 191 202
56 22 235 225 225 235 191 194 157 120 113 104 82 87 60 80 83 81 98 18 26 64 83 86 92 87 77 66 91 86 69 72 65 47 51 54 54 37 140 145 137 156 170 173 171 158 180 202 208 195 212 216 212 224